Boulder Muni, Boulder, CO, CO

8:24 AM MDT on April 23, 2017 (GMT -0600)
Boulder Muni, Boulder, CO

Weather History for KBDU - January, 2014

Change the Weather History Date:

Wednesday, January 1, 2014

  Actual Average Record
Temperature  
Mean Temperature 32 °F -  
Max Temperature 42 °F - 46 °F (2017)
Min Temperature 23 °F - 6 °F (2015)
Degree Days  
Heating Degree Days 32    
Month to date heating degree days  
Cooling Degree Days 0    
Month to date cooling degree days  
Moisture  
Dew Point 26 °F    
Average Humidity 73    
Maximum Humidity 93    
Minimum Humidity 45    
Precipitation  
Precipitation 0.00 in - 0.00 in (2017)
Sea Level Pressure  
Sea Level Pressure 30.11 in    
Wind  
Wind Speed 4 mph (East)    
Max Wind Speed 13 mph    
Max Gust Speed 12 mph    
Visibility 10 miles    
Events Snow    
T = Trace of Precipitation, MM = Missing Value Source: NWS Daily Summary

Daily Weather History Graph

Daily Weather History Graph

Search for Another Location

Airport or City:

Trip Planner

Search our weather history database for the weather conditions in past years. The results will help you decide how hot, cold, wet, or windy it might be!

Date:

Astronomy

Jan. 01, 2014 Rise Set
Actual Time 7:22 AM MST 4:46 PM MST
Civil Twilight 6:52 AM MST 5:16 PM MST
Nautical Twilight 6:18 AM MST 5:50 PM MST
Astronomical Twilight 5:45 AM MST 6:23 PM MST
Moon 7:15 AM MST (1/1) 5:34 PM MST (1/1)
Length of Visible Light 10h 24m
Length of Day
9h 23m
New Moon, 0% of the Moon is Illuminated
Jan 1
New Moon
Jan 7
First Quarter
Jan 15
Full
Jan 23
Last Quarter
Jan 30
New

Hourly Weather History & Observations

Time (MST) Temp. Windchill Dew Point Humidity Pressure Visibility Wind Dir Wind Speed Gust Speed Precip Events Conditions
12:15 AM 41.0 °F 38.0 °F 23.0 °F 49% 29.90 in 10.0 mi SSW 4.6 mph - N/A   Mostly Cloudy
12:35 AM 41.0 °F 37.1 °F 21.2 °F 45% 29.89 in 10.0 mi SSW 5.8 mph - N/A   Scattered Clouds
12:55 AM 39.2 °F 37.0 °F 21.2 °F 49% 29.88 in 10.0 mi East 3.5 mph - N/A   Scattered Clouds
1:15 AM 41.0 °F 38.0 °F 23.0 °F 49% 29.87 in 10.0 mi East 4.6 mph - N/A   Clear
1:35 AM 41.0 °F - 21.2 °F 45% 29.87 in 10.0 mi Calm Calm - N/A   Clear
1:55 AM 41.0 °F 36.4 °F 21.2 °F 45% 29.88 in 10.0 mi East 6.9 mph - N/A   Scattered Clouds
2:15 AM 37.4 °F 33.8 °F 21.2 °F 52% 29.88 in 10.0 mi WNW 4.6 mph - N/A   Clear
2:35 AM 41.0 °F - 21.2 °F 45% 29.89 in 10.0 mi Calm Calm - N/A   Clear
2:55 AM 41.0 °F - 21.2 °F 45% 29.90 in 10.0 mi Calm Calm - N/A   Clear
3:15 AM 37.4 °F 33.8 °F 21.2 °F 52% 29.90 in 10.0 mi ESE 4.6 mph - N/A   Clear
3:35 AM 41.0 °F 36.4 °F 23.0 °F 49% 29.89 in 10.0 mi South 6.9 mph - N/A   Clear
3:55 AM 41.0 °F 36.4 °F 28.4 °F 61% 29.89 in 10.0 mi SSE 6.9 mph - N/A   Clear
4:15 AM 41.0 °F - 28.4 °F 61% 29.89 in 10.0 mi Calm Calm - N/A   Clear
4:35 AM 41.0 °F - 21.2 °F 45% 29.90 in 10.0 mi Calm Calm - N/A   Clear
4:55 AM 42.8 °F 38.0 °F 23.0 °F 46% 29.92 in 10.0 mi North 8.1 mph 11.5 mph N/A   Clear
5:15 AM 41.0 °F 37.1 °F 23.0 °F 49% 29.93 in 10.0 mi WNW 5.8 mph - N/A   Clear
5:35 AM 39.2 °F 35.9 °F 23.0 °F 52% 29.94 in 10.0 mi North 4.6 mph - N/A   Scattered Clouds
5:55 AM 37.4 °F 29.3 °F 23.0 °F 56% 29.97 in 10.0 mi NNE 12.7 mph - N/A   Mostly Cloudy
6:15 AM 35.6 °F 31.7 °F 21.2 °F 56% 29.99 in 10.0 mi ENE 4.6 mph - N/A   Overcast
6:35 AM 37.4 °F 34.9 °F 23.0 °F 56% 29.99 in 10.0 mi NE 3.5 mph - N/A   Scattered Clouds
6:55 AM 35.6 °F - 23.0 °F 60% 30.02 in 10.0 mi Calm Calm - N/A   Scattered Clouds
7:15 AM 33.8 °F 29.6 °F 23.0 °F 65% 30.04 in 10.0 mi NE 4.6 mph - N/A   Mostly Cloudy
7:35 AM 33.8 °F 25.3 °F 26.6 °F 75% 30.07 in 10.0 mi NE 11.5 mph - N/A   Mostly Cloudy
7:55 AM 33.8 °F 28.6 °F 28.4 °F 81% 30.09 in 10.0 mi NNE 5.8 mph - N/A   Mostly Cloudy
8:15 AM 33.8 °F 29.6 °F 30.2 °F 87% 30.10 in 10.0 mi ESE 4.6 mph - N/A   Overcast
8:35 AM 33.8 °F - 32.0 °F 93% 30.12 in 10.0 mi Calm Calm - N/A   Overcast
8:55 AM 33.8 °F 29.6 °F 32.0 °F 93% 30.13 in 10.0 mi ESE 4.6 mph - N/A Snow Light Snow
9:15 AM 33.8 °F 28.6 °F 32.0 °F 93% 30.14 in 10.0 mi East 5.8 mph - N/A   Light Drizzle
9:35 AM 33.8 °F 29.6 °F 32.0 °F 93% 30.14 in 10.0 mi ESE 4.6 mph - N/A   Overcast
9:55 AM 33.8 °F 28.6 °F 32.0 °F 93% 30.14 in 10.0 mi ENE 5.8 mph - N/A   Overcast
10:15 AM 33.8 °F 30.8 °F 30.2 °F 87% 30.14 in 10.0 mi ENE 3.5 mph - N/A   Overcast
10:35 AM 35.6 °F 31.7 °F 30.2 °F 81% 30.14 in 10.0 mi East 4.6 mph - N/A   Overcast
10:55 AM 33.8 °F 27.7 °F 30.2 °F 87% 30.15 in 10.0 mi ENE 6.9 mph - N/A   Overcast
11:15 AM 33.8 °F 27.7 °F 30.2 °F 87% 30.15 in 10.0 mi ENE 6.9 mph - N/A   Overcast
11:35 AM 35.6 °F 30.7 °F 30.2 °F 81% 30.14 in 10.0 mi ENE 5.8 mph - N/A   Overcast
11:55 AM 35.6 °F 31.7 °F 30.2 °F 81% 30.14 in 10.0 mi ESE 4.6 mph - N/A   Overcast
12:15 PM 35.6 °F 31.7 °F 30.2 °F 81% 30.14 in 10.0 mi East 4.6 mph - N/A   Overcast
12:35 PM 35.6 °F 30.7 °F 30.2 °F 81% 30.12 in 10.0 mi ESE 5.8 mph - N/A   Overcast
12:55 PM 37.4 °F 32.1 °F 30.2 °F 75% 30.13 in 10.0 mi ENE 6.9 mph - N/A   Scattered Clouds
1:15 PM 37.4 °F 33.8 °F 28.4 °F 70% 30.13 in 10.0 mi NE 4.6 mph - N/A   Scattered Clouds
1:35 PM 39.2 °F - 28.4 °F 65% 30.13 in 10.0 mi Calm Calm - N/A   Mostly Cloudy
1:55 PM 37.4 °F - 28.4 °F 70% 30.13 in 10.0 mi Calm Calm - N/A   Scattered Clouds
2:15 PM 39.2 °F - 28.4 °F 65% 30.14 in 10.0 mi Calm Calm - N/A   Scattered Clouds
2:35 PM 37.4 °F 30.8 °F 28.4 °F 70% 30.16 in 10.0 mi ENE 9.2 mph - N/A   Mostly Cloudy
2:55 PM 35.6 °F 27.1 °F 30.2 °F 81% 30.18 in 10.0 mi NE 12.7 mph - N/A   Overcast
3:15 PM 35.6 °F 30.7 °F 28.4 °F 75% 30.20 in 10.0 mi NE 5.8 mph - N/A   Overcast
3:35 PM 33.8 °F 25.3 °F 28.4 °F 81% 30.21 in 10.0 mi NNE 11.5 mph - N/A Snow Light Snow
3:55 PM 32.0 °F 22.5 °F 26.6 °F 80% 30.23 in 5.0 mi NE 12.7 mph - N/A Snow Light Snow
4:15 PM 32.0 °F 25.6 °F 28.4 °F 87% 30.26 in 10.0 mi NE 6.9 mph - N/A   Overcast
4:35 PM 32.0 °F 28.7 °F 26.6 °F 80% 30.27 in 10.0 mi ENE 3.5 mph - N/A   Overcast
4:55 PM 32.0 °F - 26.6 °F 80% 30.27 in 10.0 mi Calm Calm - N/A   Overcast
5:15 PM 32.0 °F 27.5 °F 24.8 °F 75% 30.28 in 10.0 mi ENE 4.6 mph - N/A   Overcast
5:35 PM 32.0 °F - 24.8 °F 75% 30.29 in 10.0 mi Calm Calm - N/A   Overcast
5:55 PM 30.2 °F - 24.8 °F 80% 30.28 in 10.0 mi Calm Calm - N/A   Overcast
6:15 PM 32.0 °F - 24.8 °F 75% 30.28 in 10.0 mi Calm Calm - N/A   Overcast
6:35 PM 30.2 °F - 26.6 °F 86% 30.28 in 10.0 mi Calm Calm - N/A   Mostly Cloudy
6:55 PM 30.2 °F - 26.6 °F 86% 30.28 in 10.0 mi Calm Calm - N/A   Scattered Clouds
7:15 PM 30.2 °F 26.7 °F 26.6 °F 86% 30.28 in 10.0 mi SSE 3.5 mph - N/A   Clear
7:35 PM 28.4 °F 23.3 °F 26.6 °F 93% 30.27 in 10.0 mi South 4.6 mph - N/A   Clear
7:55 PM 28.4 °F 23.3 °F 26.6 °F 93% 30.27 in 10.0 mi SSE 4.6 mph - N/A   Clear
8:15 PM 28.4 °F 22.2 °F 26.6 °F 93% 30.26 in 10.0 mi South 5.8 mph - N/A   Clear
8:35 PM 28.4 °F 21.2 °F 24.8 °F 86% 30.26 in 10.0 mi SSE 6.9 mph - N/A   Clear
8:55 PM 28.4 °F 22.2 °F 24.8 °F 86% 30.25 in 10.0 mi SSE 5.8 mph - N/A   Clear
9:15 PM 28.4 °F 21.2 °F 24.8 °F 86% 30.25 in 10.0 mi SSE 6.9 mph - N/A   Clear
9:35 PM 28.4 °F 23.3 °F 24.8 °F 86% 30.24 in 10.0 mi South 4.6 mph - N/A   Clear
9:55 PM 28.4 °F 23.3 °F 23.0 °F 80% 30.24 in 10.0 mi SSE 4.6 mph - N/A   Clear
10:15 PM 28.4 °F 24.6 °F 23.0 °F 80% 30.23 in 10.0 mi SSE 3.5 mph - N/A   Clear
10:35 PM 26.6 °F - 23.0 °F 86% 30.23 in 10.0 mi Calm Calm - N/A   Clear
10:55 PM 26.6 °F - 23.0 °F 86% 30.23 in 10.0 mi Calm Calm - N/A   Clear
11:15 PM 28.4 °F - 23.0 °F 80% 30.22 in 10.0 mi Calm Calm - N/A   Clear
11:35 PM 23.0 °F 17.0 °F 21.2 °F 93% 30.22 in 10.0 mi NNW 4.6 mph - N/A   Clear
11:55 PM 23.0 °F 18.4 °F 19.4 °F 86% 30.21 in 10.0 mi North 3.5 mph - N/A   Clear